sat.trackr.live / text

‹ back to catalog

KUIPER-00489

NORAD 68880 · 2026-095S

PAYLOAD ACTIVE UNKNOWN

§ Identity

Operator
Country
US
Launch date
2026-04-28
Launch site
AFETR
Launch vehicle
Mass (kg)
RCS (m²)

External: N2YO · Heavens-Above · Gunter

§ Orbital elements

Epoch: 2026-09-19T23:13:36.924672Z

Period
97.30 min
Inclination
51.8957°
Eccentricity
0.0001346
Mean motion
14.79938183 rev/d
Perigee alt
628.6 km
Apogee alt
630.5 km
Semi-major
7,007.7 km
B*
3.0680e-4
RAAN
169.0310°
Arg perigee
86.5870°
Mean anomaly
273.5246°
Rev number
2,196

§ Raw data

KUIPER-004891 68880U 26095S   26262.96778848  .00002119  00000+0  30680-3 0  99992 68880  51.8957 169.0310 0001346  86.5870 273.5246 14.79938183 21965

JSON: /api/v1/satellites/68880 · /tle

For live sub-satellite position, see the globe view (requires WebGL).

§ Visibility from observer

Set your observer location to see the next 7 days of passes ≥ 10°. The values pass through the URL so the page stays shareable.

No JS? Fill the form by hand. The geolocation button needs JavaScript.